Time,TemperatureF,DewpointF,PressureIn,WindDirection,WindDirectionDegrees,WindSpeedMPH,WindSpeedGustMPH,Humidity,HourlyPrecipIn,Conditions,Clouds,dailyrainin,SoftwareType,DateUTC
2013-05-07 00:04:00,62.1,36.8,29.20,East,90,2.0,2.7,39,0.00,,---,0.00,VWS V14.01,2013-05-07 05:04:00,
2013-05-07 00:09:00,61.9,36.0,29.20,ESE,112,2.9,2.9,38,0.00,,---,0.00,VWS V14.01,2013-05-07 05:09:00,
2013-05-07 00:14:00,61.7,35.9,29.20,SE,135,0.0,1.1,38,0.00,,---,0.00,VWS V14.01,2013-05-07 05:14:00,
2013-05-07 00:19:00,61.7,35.9,29.20,East,90,2.0,5.4,38,0.00,,---,0.00,VWS V14.01,2013-05-07 05:19:00,
2013-05-07 00:24:00,61.5,35.7,29.20,SE,135,2.0,2.0,38,0.00,,---,0.00,VWS V14.01,2013-05-07 05:24:00,
2013-05-07 00:29:00,61.3,35.5,29.20,South,180,0.0,0.0,38,0.00,,---,0.00,VWS V14.01,2013-05-07 05:29:00,
2013-05-07 00:34:00,61.3,35.5,29.20,East,90,2.5,2.5,38,0.00,,---,0.00,VWS V14.01,2013-05-07 05:34:00,
2013-05-07 00:39:00,61.3,35.5,29.20,East,90,1.3,1.6,38,0.00,,---,0.00,VWS V14.01,2013-05-07 05:39:00,
2013-05-07 00:44:00,60.8,35.7,29.20,ENE,68,2.0,3.6,39,0.00,,---,0.00,VWS V14.01,2013-05-07 05:44:00,
2013-05-07 00:49:00,60.6,35.5,29.20,ENE,68,3.8,3.8,39,0.00,,---,0.00,VWS V14.01,2013-05-07 05:49:00,
2013-05-07 00:54:00,60.4,35.4,29.20,East,90,4.3,4.3,39,0.00,,---,0.00,VWS V14.01,2013-05-07 05:54:00,
2013-05-07 00:59:00,60.3,35.2,29.20,East,90,2.7,2.7,39,0.00,,---,0.00,VWS V14.01,2013-05-07 05:59:00,
2013-05-07 01:05:00,60.3,35.2,29.20,NE,45,1.3,2.5,39,0.00,,---,0.00,VWS V14.01,2013-05-07 06:05:00,
2013-05-07 01:10:00,59.7,35.4,29.20,ENE,68,2.7,2.7,40,0.00,,---,0.00,VWS V14.01,2013-05-07 06:10:00,
2013-05-07 01:15:00,59.5,35.2,29.20,East,90,1.6,1.6,40,0.00,,---,0.00,VWS V14.01,2013-05-07 06:15:00,
2013-05-07 01:20:00,59.4,35.1,29.20,East,90,2.0,2.7,40,0.00,,---,0.00,VWS V14.01,2013-05-07 06:20:00,
2013-05-07 01:25:00,59.4,35.1,29.20,ESE,112,2.7,2.7,40,0.00,,---,0.00,VWS V14.01,2013-05-07 06:25:00,
2013-05-07 01:30:00,59.2,34.9,29.20,SSE,158,1.3,1.3,40,0.00,,---,0.00,VWS V14.01,2013-05-07 06:30:00,
2013-05-07 01:35:00,59.0,34.7,29.20,ENE,68,4.5,4.5,40,0.00,,---,0.00,VWS V14.01,2013-05-07 06:35:00,
2013-05-07 01:40:00,59.0,35.3,29.20,East,90,2.9,2.9,41,0.00,,---,0.00,VWS V14.01,2013-05-07 06:40:00,
2013-05-07 01:45:00,58.8,35.2,29.20,East,90,2.9,4.3,41,0.00,,---,0.00,VWS V14.01,2013-05-07 06:45:00,
2013-05-07 01:50:00,58.8,35.2,29.20,East,90,2.2,2.2,41,0.00,,---,0.00,VWS V14.01,2013-05-07 06:50:00,
2013-05-07 01:55:00,58.8,35.8,29.20,ESE,112,2.5,2.5,42,0.00,,---,0.00,VWS V14.01,2013-05-07 06:55:00,
2013-05-07 02:01:00,58.6,35.6,29.20,NE,45,1.6,1.6,42,0.00,,---,0.00,VWS V14.01,2013-05-07 07:01:00,
2013-05-07 02:06:00,58.8,35.8,29.20,East,90,1.3,1.3,42,0.00,,---,0.00,VWS V14.01,2013-05-07 07:06:00,
2013-05-07 02:11:00,58.8,35.8,29.20,ENE,68,3.6,3.6,42,0.00,,---,0.00,VWS V14.01,2013-05-07 07:11:00,
2013-05-07 02:16:00,58.8,35.8,29.20,SE,135,2.2,2.2,42,0.00,,---,0.00,VWS V14.01,2013-05-07 07:16:00,
2013-05-07 02:21:00,58.8,35.8,29.20,SE,135,0.0,1.1,42,0.00,,---,0.00,VWS V14.01,2013-05-07 07:21:00,
2013-05-07 02:26:00,58.6,35.6,29.20,ESE,112,2.2,2.2,42,0.00,,---,0.00,VWS V14.01,2013-05-07 07:26:00,
2013-05-07 02:31:00,58.5,35.5,29.20,East,90,1.1,2.7,42,0.00,,---,0.00,VWS V14.01,2013-05-07 07:31:00,
2013-05-07 02:36:00,58.5,36.1,29.17,South,180,3.1,3.1,43,0.00,,---,0.00,VWS V14.01,2013-05-07 07:36:00,
2013-05-07 02:41:00,58.3,35.9,29.17,SSE,158,1.6,1.6,43,0.00,,---,0.00,VWS V14.01,2013-05-07 07:41:00,
2013-05-07 02:47:00,58.1,35.7,29.17,SE,135,0.9,0.9,43,0.00,,---,0.00,VWS V14.01,2013-05-07 07:47:00,
2013-05-07 02:52:00,57.9,35.6,29.17,East,90,0.9,0.9,43,0.00,,---,0.00,VWS V14.01,2013-05-07 07:52:00,
2013-05-07 02:57:00,57.9,36.2,29.17,SE,135,0.0,0.0,44,0.00,,---,0.00,VWS V14.01,2013-05-07 07:57:00,
2013-05-07 03:02:00,57.7,36.0,29.17,SSE,158,0.0,1.3,44,0.00,,---,0.00,VWS V14.01,2013-05-07 08:02:00,
2013-05-07 03:07:00,57.7,36.0,29.17,NNE,22,0.0,2.0,44,0.00,,---,0.00,VWS V14.01,2013-05-07 08:07:00,
2013-05-07 03:12:00,57.6,35.8,29.17,SSE,158,0.0,0.0,44,0.00,,---,0.00,VWS V14.01,2013-05-07 08:12:00,
2013-05-07 03:17:00,57.4,36.2,29.17,SE,135,0.0,0.0,45,0.00,,---,0.00,VWS V14.01,2013-05-07 08:17:00,
2013-05-07 03:22:00,57.2,36.1,29.17,SSW,202,0.0,0.0,45,0.00,,---,0.00,VWS V14.01,2013-05-07 08:22:00,
2013-05-07 03:28:00,56.8,36.3,29.17,SSW,202,0.0,0.0,46,0.00,,---,0.00,VWS V14.01,2013-05-07 08:28:00,
2013-05-07 03:33:00,56.5,36.5,29.17,SSW,202,0.0,0.0,47,0.00,,---,0.00,VWS V14.01,2013-05-07 08:33:00,
2013-05-07 03:38:00,56.1,36.2,29.17,SSW,202,0.0,0.0,47,0.00,,---,0.00,VWS V14.01,2013-05-07 08:38:00,
2013-05-07 03:43:00,55.9,36.5,29.17,SSW,202,0.0,0.0,48,0.00,,---,0.00,VWS V14.01,2013-05-07 08:43:00,
2013-05-07 03:48:00,55.8,36.4,29.20,SSW,202,0.0,0.0,48,0.00,,---,0.00,VWS V14.01,2013-05-07 08:48:00,
2013-05-07 03:53:00,55.4,36.6,29.20,SSW,202,0.0,0.0,49,0.00,,---,0.00,VWS V14.01,2013-05-07 08:53:00,
2013-05-07 03:58:00,55.0,36.8,29.20,SSW,202,0.0,0.0,50,0.00,,---,0.00,VWS V14.01,2013-05-07 08:58:00,
2013-05-07 04:03:00,54.9,36.6,29.20,SSW,202,0.0,0.0,50,0.00,,---,0.00,VWS V14.01,2013-05-07 09:03:00,
2013-05-07 04:08:00,54.7,36.4,29.20,SSW,202,0.0,0.0,50,0.00,,---,0.00,VWS V14.01,2013-05-07 09:08:00,
2013-05-07 04:13:00,54.5,36.8,29.17,ENE,68,0.0,0.0,51,0.00,,---,0.00,VWS V14.01,2013-05-07 09:13:00,
2013-05-07 04:18:00,54.1,36.4,29.17,ENE,68,0.0,0.0,51,0.00,,---,0.00,VWS V14.01,2013-05-07 09:18:00,
2013-05-07 04:23:00,54.0,36.8,29.17,NE,45,0.0,0.0,52,0.00,,---,0.00,VWS V14.01,2013-05-07 09:23:00,
2013-05-07 04:29:00,54.0,36.8,29.17,NNE,22,0.0,0.0,52,0.00,,---,0.00,VWS V14.01,2013-05-07 09:29:00,
2013-05-07 04:34:00,54.1,37.4,29.17,North,0,0.0,0.0,53,0.00,,---,0.00,VWS V14.01,2013-05-07 09:34:00,
2013-05-07 04:39:00,53.8,37.1,29.17,North,0,0.0,0.0,53,0.00,,---,0.00,VWS V14.01,2013-05-07 09:39:00,
2013-05-07 04:44:00,53.4,37.2,29.17,NNE,22,0.0,0.0,54,0.00,,---,0.00,VWS V14.01,2013-05-07 09:44:00,
2013-05-07 04:49:00,53.2,37.5,29.17,NNE,22,0.0,0.0,55,0.00,,---,0.00,VWS V14.01,2013-05-07 09:49:00,
2013-05-07 04:54:00,53.2,37.5,29.17,NNE,22,0.0,0.0,55,0.00,,---,0.00,VWS V14.01,2013-05-07 09:54:00,
2013-05-07 04:59:00,53.1,37.3,29.17,NNE,22,0.0,0.0,55,0.00,,---,0.00,VWS V14.01,2013-05-07 09:59:00,
2013-05-07 05:04:00,53.1,37.8,29.17,NNE,22,0.0,0.0,56,0.00,,---,0.00,VWS V14.01,2013-05-07 10:04:00,
2013-05-07 05:09:00,52.7,37.9,29.17,NNE,22,0.0,0.0,57,0.00,,---,0.00,VWS V14.01,2013-05-07 10:09:00,
2013-05-07 05:14:00,52.5,38.2,29.17,NNE,22,0.0,0.0,58,0.00,,---,0.00,VWS V14.01,2013-05-07 10:14:00,
2013-05-07 05:19:00,52.5,38.6,29.20,NNE,22,0.0,0.0,59,0.00,,---,0.00,VWS V14.01,2013-05-07 10:19:00,
2013-05-07 05:24:00,52.5,39.0,29.20,NNE,22,0.0,0.0,60,0.00,,---,0.00,VWS V14.01,2013-05-07 10:24:00,
2013-05-07 05:30:00,52.2,38.7,29.20,NNE,22,0.0,0.0,60,0.00,,---,0.00,VWS V14.01,2013-05-07 10:30:00,
2013-05-07 05:35:00,52.2,38.7,29.20,NNE,22,0.0,0.0,60,0.00,,---,0.00,VWS V14.01,2013-05-07 10:35:00,
2013-05-07 05:40:00,52.2,39.1,29.20,West,270,0.0,0.0,61,0.00,,---,0.00,VWS V14.01,2013-05-07 10:40:00,
2013-05-07 05:45:00,52.2,39.5,29.20,West,270,0.0,0.0,62,0.00,,---,0.00,VWS V14.01,2013-05-07 10:45:00,
2013-05-07 05:50:00,52.3,39.3,29.20,West,270,0.0,0.0,61,0.00,,---,0.00,VWS V14.01,2013-05-07 10:50:00,
2013-05-07 05:55:00,52.2,38.7,29.20,West,270,0.0,0.0,60,0.00,,---,0.00,VWS V14.01,2013-05-07 10:55:00,
2013-05-07 06:00:00,52.2,38.7,29.20,West,270,0.0,0.0,60,0.00,,---,0.00,VWS V14.01,2013-05-07 11:00:00,
2013-05-07 06:05:00,52.0,38.5,29.20,West,270,0.0,0.0,60,0.00,,---,0.00,VWS V14.01,2013-05-07 11:05:00,
2013-05-07 06:10:00,52.0,39.0,29.20,West,270,0.0,0.0,61,0.00,,---,0.00,VWS V14.01,2013-05-07 11:10:00,
2013-05-07 06:15:00,52.2,39.1,29.20,West,270,0.0,0.0,61,0.00,,---,0.00,VWS V14.01,2013-05-07 11:15:00,
2013-05-07 06:20:00,52.0,39.0,29.20,West,270,0.0,0.0,61,0.00,,---,0.00,VWS V14.01,2013-05-07 11:20:00,
2013-05-07 06:26:00,52.0,39.0,29.20,West,270,0.0,0.0,61,0.00,,---,0.00,VWS V14.01,2013-05-07 11:26:00,
2013-05-07 06:31:00,52.2,39.1,29.20,West,270,0.0,0.0,61,0.00,,---,0.00,VWS V14.01,2013-05-07 11:31:00,
2013-05-07 06:36:00,52.7,40.1,29.20,West,270,0.0,0.0,62,0.00,,---,0.00,VWS V14.01,2013-05-07 11:36:00,
2013-05-07 06:41:00,53.4,40.7,29.20,West,270,0.0,0.0,62,0.00,,---,0.00,VWS V14.01,2013-05-07 11:41:00,
2013-05-07 06:46:00,54.5,41.3,29.20,West,270,0.0,0.0,61,0.00,,---,0.00,VWS V14.01,2013-05-07 11:46:00,
2013-05-07 06:51:00,55.6,41.9,29.20,West,270,0.0,0.0,60,0.00,,---,0.00,VWS V14.01,2013-05-07 11:51:00,
2013-05-07 06:56:00,56.7,43.0,29.20,West,270,0.0,0.0,60,0.00,,---,0.00,VWS V14.01,2013-05-07 11:56:00,
2013-05-07 07:01:00,57.6,42.9,29.20,ENE,68,0.0,0.0,58,0.00,,---,0.00,VWS V14.01,2013-05-07 12:01:00,
2013-05-07 07:06:00,59.2,44.0,29.20,ENE,68,2.2,2.2,57,0.00,,---,0.00,VWS V14.01,2013-05-07 12:06:00,
2013-05-07 07:11:00,60.4,46.1,29.20,ENE,68,0.0,0.0,59,0.00,,---,0.00,VWS V14.01,2013-05-07 12:11:00,
2013-05-07 07:17:00,61.3,46.0,29.20,NE,45,0.0,0.0,57,0.00,,---,0.00,VWS V14.01,2013-05-07 12:17:00,
2013-05-07 07:22:00,62.6,46.7,29.20,NNE,22,1.3,2.7,56,0.00,,---,0.00,VWS V14.01,2013-05-07 12:22:00,
2013-05-07 07:27:00,63.3,45.9,29.20,NE,45,1.1,1.1,53,0.00,,---,0.00,VWS V14.01,2013-05-07 12:27:00,
2013-05-07 07:32:00,64.0,45.6,29.20,NNW,338,0.0,0.0,51,0.00,,---,0.00,VWS V14.01,2013-05-07 12:32:00,
2013-05-07 07:37:00,64.4,44.8,29.20,NNE,22,0.9,0.9,49,0.00,,---,0.00,VWS V14.01,2013-05-07 12:37:00,
2013-05-07 07:42:00,64.6,44.5,29.20,ENE,68,2.0,2.7,48,0.00,,---,0.00,VWS V14.01,2013-05-07 12:42:00,
2013-05-07 07:47:00,65.1,45.0,29.20,NE,45,0.9,1.3,48,0.00,,---,0.00,VWS V14.01,2013-05-07 12:47:00,
2013-05-07 07:52:00,65.3,44.6,29.20,North,0,1.3,1.6,47,0.00,,---,0.00,VWS V14.01,2013-05-07 12:52:00,
2013-05-07 07:57:00,65.5,44.7,29.20,ENE,68,1.3,1.3,47,0.00,,---,0.00,VWS V14.01,2013-05-07 12:57:00,
2013-05-07 08:02:00,65.5,44.2,29.20,NNW,338,2.5,2.5,46,0.00,,---,0.00,VWS V14.01,2013-05-07 13:02:00,
2013-05-07 08:07:00,65.7,44.3,29.20,East,90,1.3,2.9,46,0.00,,---,0.00,VWS V14.01,2013-05-07 13:07:00,
2013-05-07 08:12:00,65.8,43.9,29.20,NE,45,2.5,2.9,45,0.00,,---,0.00,VWS V14.01,2013-05-07 13:12:00,
2013-05-07 08:17:00,66.0,44.1,29.23,NE,45,2.9,2.9,45,0.00,,---,0.00,VWS V14.01,2013-05-07 13:17:00,
2013-05-07 08:22:00,66.4,43.8,29.23,East,90,2.5,2.5,44,0.00,,---,0.00,VWS V14.01,2013-05-07 13:22:00,
2013-05-07 08:27:00,66.7,44.2,29.23,ENE,68,1.6,1.6,44,0.00,,---,0.00,VWS V14.01,2013-05-07 13:27:00,
2013-05-07 08:33:00,66.6,44.0,29.23,North,0,1.6,1.6,44,0.00,,---,0.00,VWS V14.01,2013-05-07 13:33:00,
2013-05-07 08:38:00,67.1,44.5,29.23,NE,45,1.1,1.6,44,0.00,,---,0.00,VWS V14.01,2013-05-07 13:38:00,
2013-05-07 08:43:00,67.1,43.9,29.23,ENE,68,2.2,2.2,43,0.00,,---,0.00,VWS V14.01,2013-05-07 13:43:00,
2013-05-07 08:48:00,67.3,44.0,29.23,NE,45,2.0,2.0,43,0.00,,---,0.00,VWS V14.01,2013-05-07 13:48:00,
2013-05-07 08:53:00,67.6,44.4,29.23,East,90,1.1,1.6,43,0.00,,---,0.00,VWS V14.01,2013-05-07 13:53:00,
2013-05-07 08:58:00,67.8,44.5,29.23,NE,45,2.9,2.9,43,0.00,,---,0.00,VWS V14.01,2013-05-07 13:58:00,
2013-05-07 09:03:00,68.2,44.2,29.23,East,90,2.5,3.6,42,0.00,,---,0.00,VWS V14.01,2013-05-07 14:03:00,
2013-05-07 09:08:00,68.4,44.4,29.23,East,90,0.0,0.0,42,0.00,,---,0.00,VWS V14.01,2013-05-07 14:08:00,
2013-05-07 09:13:00,68.5,44.6,29.23,East,90,1.3,1.3,42,0.00,,---,0.00,VWS V14.01,2013-05-07 14:13:00,
2013-05-07 09:18:00,68.5,43.9,29.23,East,90,1.3,2.0,41,0.00,,---,0.00,VWS V14.01,2013-05-07 14:18:00,
2013-05-07 09:24:00,69.1,45.0,29.23,North,0,1.6,2.5,42,0.00,,---,0.00,VWS V14.01,2013-05-07 14:24:00,
2013-05-07 09:29:00,70.0,45.9,29.23,NW,315,1.1,1.1,42,0.00,,---,0.00,VWS V14.01,2013-05-07 14:29:00,
2013-05-07 09:34:00,69.8,45.1,29.20,NW,315,2.7,2.7,41,0.00,,---,0.00,VWS V14.01,2013-05-07 14:34:00,
2013-05-07 09:39:00,70.2,45.4,29.20,ESE,112,2.9,3.4,41,0.00,,---,0.00,VWS V14.01,2013-05-07 14:39:00,
2013-05-07 09:44:00,70.5,45.1,29.20,WSW,248,3.4,3.6,40,0.00,,---,0.00,VWS V14.01,2013-05-07 14:44:00,
2013-05-07 09:49:00,70.5,44.4,29.20,NE,45,4.0,4.0,39,0.00,,---,0.00,VWS V14.01,2013-05-07 14:49:00,
2013-05-07 09:54:00,70.7,43.2,29.20,East,90,3.8,6.3,37,0.00,,---,0.00,VWS V14.01,2013-05-07 14:54:00,
2013-05-07 09:59:00,70.9,44.7,29.20,NE,45,1.1,3.6,39,0.00,,---,0.00,VWS V14.01,2013-05-07 14:59:00,
2013-05-07 10:04:00,71.4,44.5,29.20,East,90,4.0,4.0,38,0.00,,---,0.00,VWS V14.01,2013-05-07 15:04:00,
2013-05-07 10:09:00,71.8,44.1,29.20,East,90,3.6,3.6,37,0.00,,---,0.00,VWS V14.01,2013-05-07 15:09:00,
2013-05-07 10:14:00,72.0,44.3,29.20,NNE,22,3.1,5.4,37,0.00,,---,0.00,VWS V14.01,2013-05-07 15:14:00,
2013-05-07 10:19:00,72.1,44.5,29.20,North,0,3.8,3.8,37,0.00,,---,0.00,VWS V14.01,2013-05-07 15:19:00,
2013-05-07 10:24:00,72.5,44.1,29.20,ENE,68,1.6,2.5,36,0.00,,---,0.00,VWS V14.01,2013-05-07 15:24:00,
2013-05-07 10:29:00,72.7,43.5,29.20,North,0,3.8,3.8,35,0.00,,---,0.00,VWS V14.01,2013-05-07 15:29:00,
2013-05-07 10:34:00,73.0,43.8,29.20,East,90,4.3,4.3,35,0.00,,---,0.00,VWS V14.01,2013-05-07 15:34:00,
2013-05-07 10:40:00,73.2,44.0,29.20,NNE,22,3.1,4.0,35,0.00,,---,0.00,VWS V14.01,2013-05-07 15:40:00,
2013-05-07 10:45:00,73.0,43.0,29.20,West,270,3.6,3.6,34,0.00,,---,0.00,VWS V14.01,2013-05-07 15:45:00,
2013-05-07 10:50:00,73.9,43.8,29.20,NNW,338,2.7,2.9,34,0.00,,---,0.00,VWS V14.01,2013-05-07 15:50:00,
2013-05-07 10:55:00,74.1,44.0,29.20,East,90,3.1,3.1,34,0.00,,---,0.00,VWS V14.01,2013-05-07 15:55:00,
2013-05-07 11:00:00,74.1,44.0,29.20,North,0,3.6,3.6,34,0.00,,---,0.00,VWS V14.01,2013-05-07 16:00:00,
2013-05-07 11:05:00,74.3,44.1,29.20,WSW,248,2.7,2.7,34,0.00,,---,0.00,VWS V14.01,2013-05-07 16:05:00,
2013-05-07 11:10:00,74.3,43.4,29.20,NW,315,2.0,2.0,33,0.00,,---,0.00,VWS V14.01,2013-05-07 16:10:00,
2013-05-07 11:15:00,74.8,44.6,29.20,NNW,338,3.6,3.6,34,0.00,,---,0.00,VWS V14.01,2013-05-07 16:15:00,
2013-05-07 11:20:00,74.8,44.6,29.23,NE,45,4.7,4.7,34,0.00,,---,0.00,VWS V14.01,2013-05-07 16:20:00,
2013-05-07 11:25:00,74.8,43.8,29.23,ENE,68,2.0,2.0,33,0.00,,---,0.00,VWS V14.01,2013-05-07 16:25:00,
2013-05-07 11:30:00,75.0,44.0,29.23,NE,45,3.6,5.4,33,0.00,,---,0.00,VWS V14.01,2013-05-07 16:30:00,
2013-05-07 11:36:00,74.8,43.8,29.20,East,90,2.9,4.0,33,0.00,,---,0.00,VWS V14.01,2013-05-07 16:36:00,
2013-05-07 11:41:00,74.7,42.0,29.20,ENE,68,4.7,6.3,31,0.00,,---,0.00,VWS V14.01,2013-05-07 16:41:00,
2013-05-07 11:46:00,75.2,43.3,29.20,North,0,2.5,2.5,32,0.00,,---,0.00,VWS V14.01,2013-05-07 16:46:00,
2013-05-07 11:51:00,75.4,44.3,29.20,NW,315,3.4,3.4,33,0.00,,---,0.00,VWS V14.01,2013-05-07 16:51:00,
2013-05-07 11:56:00,75.7,44.6,29.20,North,0,3.6,4.9,33,0.00,,---,0.00,VWS V14.01,2013-05-07 16:56:00,
2013-05-07 12:01:00,75.7,44.6,29.20,North,0,4.3,4.3,33,0.00,,---,0.00,VWS V14.01,2013-05-07 17:01:00,
2013-05-07 12:06:00,75.9,44.8,29.20,North,0,0.0,2.0,33,0.00,,---,0.00,VWS V14.01,2013-05-07 17:06:00,
2013-05-07 12:11:00,76.1,44.9,29.20,NW,315,1.3,2.5,33,0.00,,---,0.00,VWS V14.01,2013-05-07 17:11:00,
2013-05-07 12:16:00,76.6,45.4,29.20,NW,315,2.2,3.1,33,0.00,,---,0.00,VWS V14.01,2013-05-07 17:16:00,
2013-05-07 12:21:00,77.0,45.7,29.20,SW,225,2.5,2.5,33,0.00,,---,0.00,VWS V14.01,2013-05-07 17:21:00,
2013-05-07 12:26:00,77.4,46.0,29.20,NE,45,2.5,2.5,33,0.00,,---,0.00,VWS V14.01,2013-05-07 17:26:00,
2013-05-07 12:32:00,77.0,44.9,29.20,North,0,2.7,2.7,32,0.00,,---,0.00,VWS V14.01,2013-05-07 17:32:00,
2013-05-07 12:37:00,76.8,43.9,29.20,West,270,2.7,3.4,31,0.00,,---,0.00,VWS V14.01,2013-05-07 17:37:00,
2013-05-07 12:42:00,77.0,44.9,29.20,West,270,2.5,2.5,32,0.00,,---,0.00,VWS V14.01,2013-05-07 17:42:00,
2013-05-07 12:47:00,77.0,44.1,29.20,NNE,22,2.7,2.7,31,0.00,,---,0.00,VWS V14.01,2013-05-07 17:47:00,
2013-05-07 12:52:00,76.6,44.6,29.20,NW,315,1.6,4.0,32,0.00,,---,0.00,VWS V14.01,2013-05-07 17:52:00,
2013-05-07 12:57:00,77.0,44.1,29.20,ENE,68,0.9,0.9,31,0.00,,---,0.00,VWS V14.01,2013-05-07 17:57:00,
2013-05-07 13:02:00,77.2,43.4,29.20,ENE,68,4.9,4.9,30,0.00,,---,0.00,VWS V14.01,2013-05-07 18:02:00,
2013-05-07 13:07:00,77.2,44.2,29.20,NW,315,3.1,3.8,31,0.00,,---,0.00,VWS V14.01,2013-05-07 18:07:00,
2013-05-07 13:12:00,77.4,44.4,29.20,North,0,2.5,3.8,31,0.00,,---,0.00,VWS V14.01,2013-05-07 18:12:00,
2013-05-07 13:17:00,77.4,44.4,29.20,SE,135,0.0,0.0,31,0.00,,---,0.00,VWS V14.01,2013-05-07 18:17:00,
2013-05-07 13:22:00,77.5,43.7,29.20,SSE,158,0.0,0.0,30,0.00,,---,0.00,VWS V14.01,2013-05-07 18:22:00,
2013-05-07 13:28:00,77.4,43.5,29.20,NNE,22,4.7,4.7,30,0.00,,---,0.00,VWS V14.01,2013-05-07 18:28:00,
2013-05-07 13:33:00,77.5,44.5,29.20,North,0,1.1,1.1,31,0.00,,---,0.00,VWS V14.01,2013-05-07 18:33:00,
2013-05-07 13:38:00,77.7,44.7,29.20,NNE,22,3.4,3.4,31,0.00,,---,0.00,VWS V14.01,2013-05-07 18:38:00,
2013-05-07 13:43:00,77.7,44.7,29.20,East,90,1.6,3.4,31,0.00,,---,0.00,VWS V14.01,2013-05-07 18:43:00,
2013-05-07 13:48:00,77.7,44.7,29.20,NW,315,2.5,2.9,31,0.00,,---,0.00,VWS V14.01,2013-05-07 18:48:00,
2013-05-07 13:53:00,78.8,44.8,29.20,West,270,2.2,2.2,30,0.00,,---,0.00,VWS V14.01,2013-05-07 18:53:00,
2013-05-07 13:58:00,80.1,45.9,29.20,NNW,338,0.9,0.9,30,0.00,,---,0.00,VWS V14.01,2013-05-07 18:58:00,
2013-05-07 14:03:00,81.5,48.0,29.20,NNW,338,1.6,1.6,31,0.00,,---,0.00,VWS V14.01,2013-05-07 19:03:00,
2013-05-07 14:08:00,80.2,46.0,29.20,NNE,22,4.3,4.3,30,0.00,,---,0.00,VWS V14.01,2013-05-07 19:08:00,
2013-05-07 14:13:00,79.7,46.4,29.20,NNE,22,1.1,2.5,31,0.00,,---,0.00,VWS V14.01,2013-05-07 19:13:00,
2013-05-07 14:19:00,79.2,45.1,29.20,SSE,158,1.6,1.6,30,0.00,,---,0.00,VWS V14.01,2013-05-07 19:19:00,
2013-05-07 14:24:00,79.7,46.4,29.20,NNW,338,3.1,3.1,31,0.00,,---,0.00,VWS V14.01,2013-05-07 19:24:00,
2013-05-07 14:29:00,79.9,46.6,29.20,West,270,2.5,2.5,31,0.00,,---,0.00,VWS V14.01,2013-05-07 19:29:00,
2013-05-07 14:34:00,79.9,46.6,29.20,NW,315,2.7,4.3,31,0.00,,---,0.00,VWS V14.01,2013-05-07 19:34:00,
2013-05-07 14:39:00,79.9,46.6,29.20,WSW,248,2.5,2.5,31,0.00,,---,0.00,VWS V14.01,2013-05-07 19:39:00,
2013-05-07 14:44:00,79.7,45.6,29.20,NW,315,4.3,4.3,30,0.00,,---,0.00,VWS V14.01,2013-05-07 19:44:00,
2013-05-07 14:49:00,79.5,46.3,29.20,West,270,3.4,4.9,31,0.00,,---,0.00,VWS V14.01,2013-05-07 19:49:00,
2013-05-07 14:54:00,79.3,45.2,29.20,NNE,22,3.4,3.4,30,0.00,,---,0.00,VWS V14.01,2013-05-07 19:54:00,
2013-05-07 14:59:00,79.3,46.1,29.20,NNW,338,2.2,2.2,31,0.00,,---,0.00,VWS V14.01,2013-05-07 19:59:00,
2013-05-07 15:04:00,79.2,45.1,29.20,NW,315,2.0,2.0,30,0.00,,---,0.00,VWS V14.01,2013-05-07 20:04:00,
2013-05-07 15:10:00,79.2,45.1,29.20,North,0,2.7,2.7,30,0.00,,---,0.00,VWS V14.01,2013-05-07 20:10:00,
2013-05-07 15:15:00,79.5,45.4,29.20,WSW,248,5.8,5.8,30,0.00,,---,0.00,VWS V14.01,2013-05-07 20:15:00,
2013-05-07 15:20:00,79.5,45.4,29.17,NW,315,0.0,0.0,30,0.00,,---,0.00,VWS V14.01,2013-05-07 20:20:00,
2013-05-07 15:25:00,79.5,45.4,29.17,NE,45,2.9,3.1,30,0.00,,---,0.00,VWS V14.01,2013-05-07 20:25:00,
2013-05-07 15:30:00,79.3,45.2,29.17,NW,315,0.0,0.9,30,0.00,,---,0.00,VWS V14.01,2013-05-07 20:30:00,
2013-05-07 15:35:00,79.7,45.6,29.17,North,0,3.1,5.4,30,0.00,,---,0.00,VWS V14.01,2013-05-07 20:35:00,
2013-05-07 15:40:00,79.7,45.6,29.17,North,0,0.9,3.1,30,0.00,,---,0.00,VWS V14.01,2013-05-07 20:40:00,
2013-05-07 15:45:00,79.3,45.2,29.17,WSW,248,2.7,5.6,30,0.00,,---,0.00,VWS V14.01,2013-05-07 20:45:00,
2013-05-07 15:50:00,79.5,46.3,29.17,West,270,3.4,3.4,31,0.00,,---,0.00,VWS V14.01,2013-05-07 20:50:00,
2013-05-07 15:55:00,79.3,45.2,29.17,NNE,22,0.9,2.0,30,0.00,,---,0.00,VWS V14.01,2013-05-07 20:55:00,
2013-05-07 16:00:00,79.5,45.4,29.17,NNW,338,0.0,0.0,30,0.00,,---,0.00,VWS V14.01,2013-05-07 21:00:00,
2013-05-07 16:05:00,79.3,46.1,29.17,SE,135,0.0,2.0,31,0.00,,---,0.00,VWS V14.01,2013-05-07 21:05:00,
2013-05-07 16:10:00,79.5,45.4,29.17,WSW,248,3.8,3.8,30,0.00,,---,0.00,VWS V14.01,2013-05-07 21:10:00,
2013-05-07 16:16:00,79.7,45.6,29.17,South,180,4.7,4.7,30,0.00,,---,0.00,VWS V14.01,2013-05-07 21:16:00,
2013-05-07 16:21:00,79.7,45.6,29.17,North,0,0.9,0.9,30,0.00,,---,0.00,VWS V14.01,2013-05-07 21:21:00,
2013-05-07 16:26:00,79.9,45.7,29.17,NNW,338,4.7,5.6,30,0.00,,---,0.00,VWS V14.01,2013-05-07 21:26:00,
2013-05-07 16:31:00,79.7,45.6,29.17,NW,315,2.2,3.4,30,0.00,,---,0.00,VWS V14.01,2013-05-07 21:31:00,
2013-05-07 16:36:00,79.5,45.4,29.17,WNW,292,1.6,4.9,30,0.00,,---,0.00,VWS V14.01,2013-05-07 21:36:00,
2013-05-07 16:41:00,79.7,45.6,29.17,WNW,292,0.0,2.0,30,0.00,,---,0.00,VWS V14.01,2013-05-07 21:41:00,
2013-05-07 16:46:00,79.3,45.2,29.17,West,270,4.9,4.9,30,0.00,,---,0.00,VWS V14.01,2013-05-07 21:46:00,
2013-05-07 16:51:00,79.3,45.2,29.17,NW,315,1.3,1.3,30,0.00,,---,0.00,VWS V14.01,2013-05-07 21:51:00,
2013-05-07 16:56:00,79.2,45.1,29.17,SW,225,1.6,1.6,30,0.00,,---,0.00,VWS V14.01,2013-05-07 21:56:00,
2013-05-07 17:01:00,79.2,45.1,29.17,NW,315,2.9,3.1,30,0.00,,---,0.00,VWS V14.01,2013-05-07 22:01:00,
2013-05-07 17:07:00,79.3,45.2,29.17,North,0,3.1,3.1,30,0.00,,---,0.00,VWS V14.01,2013-05-07 22:07:00,
2013-05-07 17:12:00,79.5,45.4,29.17,North,0,2.9,2.9,30,0.00,,---,0.00,VWS V14.01,2013-05-07 22:12:00,
2013-05-07 17:17:00,79.3,45.2,29.17,NNE,22,3.4,3.4,30,0.00,,---,0.00,VWS V14.01,2013-05-07 22:17:00,
2013-05-07 17:22:00,79.0,44.9,29.17,SW,225,0.9,0.9,30,0.00,,---,0.00,VWS V14.01,2013-05-07 22:22:00,
2013-05-07 17:27:00,79.2,45.1,29.17,North,0,0.0,3.1,30,0.00,,---,0.00,VWS V14.01,2013-05-07 22:27:00,
2013-05-07 17:32:00,79.0,44.9,29.17,WSW,248,0.9,2.0,30,0.00,,---,0.00,VWS V14.01,2013-05-07 22:32:00,
2013-05-07 17:37:00,78.8,44.8,29.17,North,0,2.2,2.5,30,0.00,,---,0.00,VWS V14.01,2013-05-07 22:37:00,
2013-05-07 17:42:00,79.0,44.9,29.17,NNW,338,0.0,0.0,30,0.00,,---,0.00,VWS V14.01,2013-05-07 22:42:00,
2013-05-07 17:47:00,79.0,44.9,29.17,West,270,2.2,2.2,30,0.00,,---,0.00,VWS V14.01,2013-05-07 22:47:00,
2013-05-07 17:53:00,79.0,44.9,29.17,NE,45,0.9,3.8,30,0.00,,---,0.00,VWS V14.01,2013-05-07 22:53:00,
2013-05-07 17:58:00,79.0,44.9,29.17,North,0,3.6,3.6,30,0.00,,---,0.00,VWS V14.01,2013-05-07 22:58:00,
2013-05-07 18:03:00,79.0,44.9,29.17,SW,225,1.6,1.6,30,0.00,,---,0.00,VWS V14.01,2013-05-07 23:03:00,
2013-05-07 18:08:00,78.8,44.8,29.17,ENE,68,3.4,3.4,30,0.00,,---,0.00,VWS V14.01,2013-05-07 23:08:00,
2013-05-07 18:13:00,78.6,44.6,29.17,NE,45,1.1,1.1,30,0.00,,---,0.00,VWS V14.01,2013-05-07 23:13:00,
2013-05-07 18:18:00,78.4,44.5,29.17,West,270,0.0,0.0,30,0.00,,---,0.00,VWS V14.01,2013-05-07 23:18:00,
2013-05-07 18:23:00,78.3,44.3,29.17,West,270,4.9,4.9,30,0.00,,---,0.00,VWS V14.01,2013-05-07 23:23:00,
2013-05-07 18:28:00,78.3,44.3,29.17,North,0,2.7,2.7,30,0.00,,---,0.00,VWS V14.01,2013-05-07 23:28:00,
2013-05-07 18:33:00,78.1,44.2,29.17,West,270,0.0,0.0,30,0.00,,---,0.00,VWS V14.01,2013-05-07 23:33:00,
2013-05-07 18:38:00,77.7,43.8,29.17,West,270,1.3,2.2,30,0.00,,---,0.00,VWS V14.01,2013-05-07 23:38:00,
2013-05-07 18:44:00,77.7,43.8,29.17,NW,315,2.2,3.1,30,0.00,,---,0.00,VWS V14.01,2013-05-07 23:44:00,
2013-05-07 18:48:00,77.4,43.5,29.17,NW,315,3.6,3.6,30,0.00,,---,0.00,VWS V14.01,2013-05-07 23:48:00,
2013-05-07 18:54:00,77.0,43.2,29.17,West,270,0.9,0.9,30,0.00,,---,0.00,VWS V14.01,2013-05-07 23:54:00,
2013-05-07 18:59:00,77.0,43.2,29.17,North,0,0.0,0.0,30,0.00,,---,0.00,VWS V14.01,2013-05-07 23:59:00,
2013-05-07 19:04:00,76.6,43.8,29.17,North,0,2.7,2.7,31,0.00,,---,0.00,VWS V14.01,2013-05-08 00:04:00,
2013-05-07 19:09:00,76.5,43.6,29.17,NW,315,0.0,0.0,31,0.00,,---,0.00,VWS V14.01,2013-05-08 00:09:00,
2013-05-07 19:14:00,76.3,43.5,29.17,West,270,1.1,1.1,31,0.00,,---,0.00,VWS V14.01,2013-05-08 00:14:00,
2013-05-07 19:19:00,76.1,43.3,29.17,West,270,0.0,0.0,31,0.00,,---,0.00,VWS V14.01,2013-05-08 00:19:00,
2013-05-07 19:24:00,75.9,43.1,29.17,West,270,2.7,2.9,31,0.00,,---,0.00,VWS V14.01,2013-05-08 00:24:00,
2013-05-07 19:29:00,75.4,42.7,29.17,NW,315,0.0,0.0,31,0.00,,---,0.00,VWS V14.01,2013-05-08 00:29:00,
2013-05-07 19:34:00,75.0,42.4,29.17,WSW,248,0.0,0.0,31,0.00,,---,0.00,VWS V14.01,2013-05-08 00:34:00,
2013-05-07 19:39:00,74.7,42.9,29.17,WSW,248,0.0,0.0,32,0.00,,---,0.00,VWS V14.01,2013-05-08 00:39:00,
2013-05-07 19:44:00,74.1,41.6,29.17,WSW,248,0.0,0.0,31,0.00,,---,0.00,VWS V14.01,2013-05-08 00:44:00,
2013-05-07 19:50:00,73.6,41.9,29.17,WSW,248,0.0,0.0,32,0.00,,---,0.00,VWS V14.01,2013-05-08 00:50:00,
2013-05-07 19:55:00,73.0,41.5,29.17,WSW,248,0.0,0.0,32,0.00,,---,0.00,VWS V14.01,2013-05-08 00:55:00,
2013-05-07 20:00:00,72.5,41.0,29.17,WSW,248,0.0,0.0,32,0.00,,---,0.00,VWS V14.01,2013-05-08 01:00:00,
2013-05-07 20:05:00,72.1,41.5,29.17,WSW,248,0.0,0.0,33,0.00,,---,0.00,VWS V14.01,2013-05-08 01:05:00,
2013-05-07 20:10:00,71.8,41.2,29.17,WSW,248,0.0,0.0,33,0.00,,---,0.00,VWS V14.01,2013-05-08 01:10:00,
2013-05-07 20:15:00,71.2,40.7,29.17,WSW,248,0.0,0.0,33,0.00,,---,0.00,VWS V14.01,2013-05-08 01:15:00,
2013-05-07 20:20:00,70.9,40.4,29.17,WSW,248,0.0,0.0,33,0.00,,---,0.00,VWS V14.01,2013-05-08 01:20:00,
2013-05-07 20:25:00,70.3,39.9,29.17,WSW,248,0.0,0.0,33,0.00,,---,0.00,VWS V14.01,2013-05-08 01:25:00,
2013-05-07 20:30:00,69.8,39.4,29.17,WSW,248,0.0,0.0,33,0.00,,---,0.00,VWS V14.01,2013-05-08 01:30:00,
2013-05-07 20:35:00,69.4,39.9,29.17,WSW,248,0.0,0.0,34,0.00,,---,0.00,VWS V14.01,2013-05-08 01:35:00,
2013-05-07 20:40:00,69.3,39.7,29.17,WSW,248,0.0,0.0,34,0.00,,---,0.00,VWS V14.01,2013-05-08 01:40:00,
2013-05-07 20:45:00,69.1,40.3,29.17,WSW,248,0.0,0.0,35,0.00,,---,0.00,VWS V14.01,2013-05-08 01:45:00,
2013-05-07 20:50:00,68.7,40.0,29.17,ESE,112,0.0,0.0,35,0.00,,---,0.00,VWS V14.01,2013-05-08 01:50:00,
2013-05-07 20:55:00,68.4,39.7,29.17,NE,45,0.0,0.0,35,0.00,,---,0.00,VWS V14.01,2013-05-08 01:55:00,
2013-05-07 21:00:00,68.0,40.1,29.17,NE,45,0.0,0.0,36,0.00,,---,0.00,VWS V14.01,2013-05-08 02:00:00,
2013-05-07 21:05:00,67.6,40.5,29.17,NE,45,0.0,0.0,37,0.00,,---,0.00,VWS V14.01,2013-05-08 02:05:00,
2013-05-07 21:10:00,67.5,40.3,29.17,NE,45,0.0,0.0,37,0.00,,---,0.00,VWS V14.01,2013-05-08 02:10:00,
2013-05-07 21:15:00,67.3,40.1,29.17,NE,45,0.0,0.0,37,0.00,,---,0.00,VWS V14.01,2013-05-08 02:15:00,
2013-05-07 21:20:00,66.9,40.5,29.17,NE,45,0.0,0.0,38,0.00,,---,0.00,VWS V14.01,2013-05-08 02:20:00,
2013-05-07 21:25:00,66.6,40.2,29.17,East,90,0.0,0.0,38,0.00,,---,0.00,VWS V14.01,2013-05-08 02:25:00,
2013-05-07 21:31:00,66.0,40.4,29.17,ESE,112,0.0,0.0,39,0.00,,---,0.00,VWS V14.01,2013-05-08 02:31:00,
2013-05-07 21:36:00,65.7,40.7,29.17,ESE,112,0.0,0.0,40,0.00,,---,0.00,VWS V14.01,2013-05-08 02:36:00,
2013-05-07 21:41:00,65.3,40.4,29.17,ESE,112,0.0,0.0,40,0.00,,---,0.00,VWS V14.01,2013-05-08 02:41:00,
2013-05-07 21:46:00,65.1,40.9,29.17,ESE,112,0.0,0.0,41,0.00,,---,0.00,VWS V14.01,2013-05-08 02:46:00,
2013-05-07 21:51:00,64.6,40.4,29.17,ESE,112,0.0,0.0,41,0.00,,---,0.00,VWS V14.01,2013-05-08 02:51:00,
2013-05-07 21:56:00,64.2,41.3,29.17,East,90,0.0,0.0,43,0.00,,---,0.00,VWS V14.01,2013-05-08 02:56:00,
2013-05-07 22:01:00,64.0,41.1,29.17,East,90,0.0,0.0,43,0.00,,---,0.00,VWS V14.01,2013-05-08 03:01:00,
2013-05-07 22:06:00,63.5,41.2,29.17,East,90,0.0,0.0,44,0.00,,---,0.00,VWS V14.01,2013-05-08 03:06:00,
2013-05-07 22:11:00,63.3,41.1,29.17,East,90,0.0,0.0,44,0.00,,---,0.00,VWS V14.01,2013-05-08 03:11:00,
2013-05-07 22:16:00,63.1,40.9,29.17,East,90,0.0,0.0,44,0.00,,---,0.00,VWS V14.01,2013-05-08 03:16:00,
2013-05-07 22:21:00,63.0,41.3,29.14,East,90,0.0,0.0,45,0.00,,---,0.00,VWS V14.01,2013-05-08 03:21:00,
2013-05-07 22:26:00,62.8,41.2,29.14,SW,225,0.0,0.0,45,0.00,,---,0.00,VWS V14.01,2013-05-08 03:26:00,
2013-05-07 22:31:00,62.8,41.2,29.14,SW,225,0.0,0.0,45,0.00,,---,0.00,VWS V14.01,2013-05-08 03:31:00,
2013-05-07 22:36:00,62.2,41.2,29.14,SW,225,0.0,0.0,46,0.00,,---,0.00,VWS V14.01,2013-05-08 03:36:00,
2013-05-07 22:41:00,62.1,41.1,29.14,ESE,112,2.9,3.1,46,0.00,,---,0.00,VWS V14.01,2013-05-08 03:41:00,
2013-05-07 22:46:00,61.9,40.9,29.14,ENE,68,0.0,1.1,46,0.00,,---,0.00,VWS V14.01,2013-05-08 03:46:00,
2013-05-07 22:51:00,61.7,41.3,29.17,South,180,0.0,0.0,47,0.00,,---,0.00,VWS V14.01,2013-05-08 03:51:00,
2013-05-07 22:56:00,61.5,41.1,29.17,SE,135,0.0,0.0,47,0.00,,---,0.00,VWS V14.01,2013-05-08 03:56:00,
2013-05-07 23:01:00,61.7,41.3,29.17,SE,135,0.0,0.0,47,0.00,,---,0.00,VWS V14.01,2013-05-08 04:01:00,
2013-05-07 23:03:00,61.7,41.3,29.17,SE,135,0.0,0.0,47,0.00,,---,0.00,VWS V14.01,2013-05-08 04:03:00,
2013-05-07 23:08:00,61.7,41.3,29.17,ENE,68,0.0,0.0,47,0.00,,---,0.00,VWS V14.01,2013-05-08 04:08:00,
2013-05-07 23:13:00,61.7,41.3,29.17,SSW,202,0.0,0.0,47,0.00,,---,0.00,VWS V14.01,2013-05-08 04:13:00,
2013-05-07 23:18:00,61.3,41.0,29.17,SSW,202,0.0,0.0,47,0.00,,---,0.00,VWS V14.01,2013-05-08 04:18:00,
2013-05-07 23:23:00,61.3,41.0,29.17,East,90,0.0,0.0,47,0.00,,---,0.00,VWS V14.01,2013-05-08 04:23:00,
2013-05-07 23:28:00,61.2,40.8,29.17,East,90,0.0,0.0,47,0.00,,---,0.00,VWS V14.01,2013-05-08 04:28:00,
2013-05-07 23:33:00,61.0,40.6,29.17,East,90,0.0,0.0,47,0.00,,---,0.00,VWS V14.01,2013-05-08 04:33:00,
2013-05-07 23:38:00,60.6,40.3,29.17,East,90,0.0,0.0,47,0.00,,---,0.00,VWS V14.01,2013-05-08 04:38:00,
2013-05-07 23:44:00,60.4,40.7,29.17,East,90,0.0,0.0,48,0.00,,---,0.00,VWS V14.01,2013-05-08 04:44:00,
2013-05-07 23:49:00,60.1,40.9,29.17,East,90,0.0,0.0,49,0.00,,---,0.00,VWS V14.01,2013-05-08 04:49:00,
2013-05-07 23:54:00,59.9,41.2,29.17,East,90,0.0,0.0,50,0.00,,---,0.00,VWS V14.01,2013-05-08 04:54:00,
2013-05-07 23:59:00,59.7,41.1,29.17,ENE,68,0.0,0.0,50,0.00,,---,0.00,VWS V14.01,2013-05-08 04:59:00,